Location: Caltech
(34.1382°N, 118.1253°W)
Time: 08:10:45
(UTC-07:00)

Lacrosse 5 - Visible Passes

Search period start: 30 October 2014 00:00
Search period end: 08 November 2014 23:00
Orbit: 706 x 722 km, 57.0° (Epoch: 19 October)

Date Brightness Start Highest point End Pass type
(mag) Time Alt. Az. Time Alt. Az. Time Alt. Az.
30 Oct 3.9 06:32:36 10° S 06:37:03 32° ESE 06:41:30 10° ENE visible
31 Oct 4.8 05:39:46 10° SSE 05:42:33 15° ESE 05:45:21 10° E visible
01 Nov 2.5 06:25:08 10° SSW 06:30:07 60° SE 06:35:05 10° NE visible
02 Nov 3.8 04:31:12 10° S 04:35:30 28° ESE 04:39:47 10° ENE visible
03 Nov 4.7 03:38:43 10° SE 03:41:01 13° ESE 03:43:19 10° E visible
03 Nov 1.8 05:18:13 10° SW 05:23:16 75° NW 05:28:20 10° NE visible
04 Nov 2.5 04:24:33 15° SSW 04:28:32 53° SE 04:33:27 10° NE visible
05 Nov 3.7 03:33:26 25° SE 03:33:56 25° ESE 03:38:03 10° ENE visible
05 Nov 2.3 05:12:37 15° WSW 05:16:33 42° NW 05:21:21 10° NNE visible
06 Nov 1.7 04:21:06 70° WSW 04:21:40 83° NW 04:26:45 10° NE visible
07 Nov 3.7 03:29:18 27° ENE 03:29:18 27° ENE 03:31:48 10° NE visible
07 Nov 3.0 05:08:27 22° WNW 05:09:58 26° NW 05:14:10 10° NNE visible
08 Nov 2.8 04:16:25 36° N 04:16:25 36° N 04:19:48 10° NNE visible
